Regional Weather Roundup
Issued by NWS New Orleans/Baton Rouge, LA

Home | Current Version | Previous Version | Text Only | Print | Product List | Glossary On
Versions: 1 2 3 4 5 6 7 8 9 10 11 12 13 14 15 16 17 18 19 20 21 22 23 24 25 26 27 28 29 30 31 32 33 34 35 36 37 38 39 40 41 42 43 44 45 46 47 48 49 50
244
ASUS44 KLIX 052211
RWRLIX
NEW ORLEANS REGIONAL WEATHER ROUNDUP
NATIONAL WEATHER SERVICE NEW ORLEANS LA
500 PM CDT THU MAY 05 2016

NOTE: "FAIR" INDICATES FEW OR NO CLOUDS BELOW 12,000 FEET WITH NO
      SIGNIFICANT WEATHER AND/OR OBSTRUCTIONS TO VISIBILITY.
      SKY/WX - SKY CONDITION AND SIGNIFICANT WEATHER.
      TMP - AIR TEMPERATURE.     DP    - DEWPOINT TEMPERATURE.
      RH  - RELATIVE HUMIDITY.   PRES  - PRESSURE.
      HI  - HEAT INDEX.          WCI   - WIND CHILL INDEX.

*  THESE STATIONS ARE NOT NWS OR FAA STATIONS AND ARE NOT UNDER
   NWS QUALITY CONTROL.

LAZ038-040-048-061>063-065>067-069-052300-
SOUTHEAST LOUISIANA

CITY           SKY/WX    TMP DP  RH WIND       PRES   REMARKS
N.O. AUDUBON     N/A     82  53  37 MISG        N/A
N.O. INTL ARPT SUNNY     79  49  34 NW13G18   29.87F
N.O. LAKEFRONT SUNNY     77  54  44 NW12      29.88F
N.O. DOWNTOWN*   N/A     80  49  33 VRB7      29.88F
RESERVE*         N/A     81  44  26 NW12      29.88S
SLIDELL        SUNNY     79  46  31 NW12G18   29.86F
BATON ROUGE    SUNNY     78  41  26 NW12G22   29.90F
BOOTHVILLE     SUNNY     77  50  38 NW13      29.87F
BELLE CHASSE   SUNNY     79  48  33 NW8G16    29.87F
BOGALUSA*        N/A     79  39  23 NW12G21   29.90S
GALLIANO*      CLEAR     82  45  27 N8        29.87F
NEW ROADS*       N/A     77  45  32 NW12G20   29.92S
GONZALES*        N/A     78  47  33 W9        29.88S
HAMMOND*       SUNNY     81  37  21 NW10G17   29.88S
HOUMA*         NOT AVBL
PORT FOURCHON* CLEAR     79  48  34 W10G16    29.88F

$$

MSZ070-080>082-052300-
SOUTHERN MISSISSIPPI

CITY           SKY/WX    TMP DP  RH WIND       PRES   REMARKS
MCCOMB         SUNNY     76  43  30 NW16G22   29.90F
GULFPORT       SUNNY     79  44  28 NW14G23   29.84F
BILOXI         SUNNY     78  44  29 N12G20    29.84F
PASCAGOULA     SUNNY     77  46  33 N13G21    29.84F
STENNIS ARPT*  SUNNY     77  36  22 NW7G16    29.86

$$

COASTAL OBSERVATIONS
LAKE AND NEARSHORE STATIONS

STATION/POSITION TIME  TEMP    WIND        PRES    WAVE
                       AIR SEA DIR/SP/G            HT/PER
                 (UTC) (F)     (DEG/KT/KT) (MB)    (FT/S)
PASCAGOULA       2100   78     310/ 13/ 18 1010.2
WAVELAND YACHT   2100   76 75  330/ 13/ 17 1011.0
GRAND ISLE       2100   78 75  360/  9/ 11 1011.8
SOUTHWEST PASS   2100          320/  2/  7   N/A
NEW CANAL        2100   77 74  320/  2/  4 1011.3
SHELL BEACH      2100   75 75  300/ 15/ 17 1011.7

OFFSHORE STATIONS

STATION/POSITION TIME  TEMP    WIND        PRES    WAVE
                       AIR SEA DIR/SP/G            HT/PER
                 (UTC) (F)     (DEG/KT/KT) (MB)    (FT/S)
64 S DAUPHIN ISL 2100   72 75  320/ 12/ 14 1011.1

$$





USA.gov is the U.S. government's official web portal to all federal, state and local government web resources and services.